Theta_e
311 312 311 312 312 312 313 316 320 321 321 322 323 327 333 338 336 330 328 327 327 328 327 326 327 327 327 328 330 333 333 333 333 332 332 332 331 331 332 330 331 332 330 329 328 329 326 325 327 327 326 328 328 328 330 328 328 328 326 326 329 328 326 323 319 324 330 330 331 332 332 333 330 330 332 330 329 327 325 326 324 324 327 327 330 335 343
311 312 312 312 312 312 312 314 319 321 322 323 324 326 332 336 335 332 330 328 329 330 328 329 329 328 329 330 329 331 334 334 334 332 332 332 330 329 330 330 331 332 330 329 329 328 325 324 327 328 328 328 329 329 329 328 327 327 327 327 327 325 325 322 318 320 323 324 327 328 329 331 330 332 333 330 332 331 330 334 331 327 327 327 328 332 338
311 311 311 311 312 312 312 313 318 321 321 323 324 325 330 334 335 333 331 329 330 330 329 330 331 332 332 333 332 333 334 335 334 333 334 333 331 330 330 330 330 330 329 329 329 328 326 325 326 328 328 329 329 329 328 328 328 328 331 331 327 324 326 324 319 316 317 322 326 327 328 330 330 332 335 334 333 331 329 334 333 328 328 329 329 331 338
311 311 311 312 312 312 312 312 316 320 321 323 325 326 332 336 335 336 334 332 331 331 331 330 332 334 335 334 333 334 335 336 334 333 333 333 331 331 331 329 329 330 329 329 329 330 328 326 328 328 328 329 328 329 329 327 329 335 337 332 329 327 327 327 324 320 323 333 339 337 333 331 328 329 334 333 333 333 329 330 329 329 328 329 333 336 337
310 311 311 312 311 312 312 311 314 319 321 324 327 329 333 336 336 336 337 336 335 333 332 333 335 337 337 336 335 336 336 336 335 333 332 332 332 331 330 330 328 327 330 329 328 329 329 327 329 328 328 329 329 329 329 328 336 344 337 330 331 328 324 327 329 325 329 341 342 337 334 332 328 328 332 331 333 336 329 326 330 333 326 327 338 341 334
310 311 311 312 311 311 312 312 314 318 321 325 329 329 331 334 335 336 337 336 337 336 336 336 336 336 337 337 335 335 335 334 334 334 332 331 331 330 331 331 330 329 330 329 327 328 328 327 328 329 328 329 329 329 328 328 336 340 331 328 332 328 324 328 328 327 331 337 335 334 333 332 331 330 331 332 332 333 330 328 333 333 325 327 339 341 335
311 311 311 312 311 311 312 312 314 317 320 324 330 329 328 330 332 335 336 336 336 336 335 336 335 335 338 340 337 334 335 335 334 333 335 335 331 330 331 330 330 330 330 329 329 330 328 327 329 330 329 329 330 329 328 328 330 330 327 329 331 327 325 330 330 328 331 333 332 334 332 329 332 332 331 332 332 332 333 332 334 334 329 331 337 338 338
311 311 311 312 312 312 312 312 314 318 320 322 328 329 328 329 330 332 335 336 335 334 335 335 335 338 340 340 338 336 336 335 332 333 336 336 332 331 335 334 331 331 332 331 332 332 330 330 333 332 329 329 330 329 328 327 329 329 327 329 331 328 325 331 331 325 327 332 334 333 333 331 329 330 332 333 332 332 333 333 332 332 332 334 334 336 340
312 312 312 312 312 313 313 313 314 317 320 322 325 329 329 328 328 331 335 337 336 336 336 335 336 341 340 338 335 336 336 334 334 335 336 334 333 332 335 336 334 332 333 332 332 332 331 331 333 332 330 330 331 330 330 329 328 329 328 328 330 328 327 331 331 323 324 332 333 331 334 332 326 327 330 331 332 330 331 333 334 331 332 334 332 332 338
314 313 313 313 313 314 315 315 316 317 320 321 322 326 329 329 327 330 334 337 337 336 336 334 337 340 339 337 335 336 335 334 335 334 334 333 334 335 335 334 335 334 333 333 333 332 331 331 332 333 330 330 331 332 332 330 331 330 329 329 330 330 329 330 329 323 324 329 330 331 330 326 325 329 333 332 334 334 333 333 335 335 333 332 332 335 341
316 314 314 314 314 315 315 317 317 318 320 321 320 323 329 329 328 330 334 337 337 335 335 335 334 336 336 335 335 334 334 334 334 334 335 335 334 336 335 334 335 334 332 333 332 332 333 332 331 331 331 330 331 332 332 331 331 332 330 329 333 334 332 331 329 324 322 326 331 329 325 324 329 337 337 335 333 333 334 332 333 335 335 335 338 341 343
318 316 316 315 315 316 317 318 319 318 320 321 320 321 327 330 328 329 332 335 337 336 335 336 334 334 334 334 336 336 333 334 335 334 335 335 334 335 335 333 334 334 333 332 333 334 334 332 331 332 330 330 331 331 332 331 330 333 332 330 333 335 333 332 332 326 322 326 328 323 322 329 338 340 334 335 335 333 334 334 332 333 335 337 338 340 341
319 318 317 317 317 317 317 318 319 319 319 320 320 321 326 329 328 328 331 333 337 336 334 335 334 334 333 333 336 336 335 334 335 336 336 335 335 335 335 334 334 333 332 333 333 335 333 332 333 334 332 333 333 330 330 330 330 331 332 331 333 334 332 333 331 328 327 326 323 322 326 334 339 337 336 335 336 335 334 333 334 333 334 336 338 339 340
319 319 319 319 318 318 318 319 319 319 319 321 321 320 326 329 327 327 330 332 335 337 335 333 333 333 332 333 334 336 336 334 335 336 336 336 336 336 335 334 334 332 332 334 334 334 334 333 333 332 332 332 330 329 330 330 330 332 332 332 333 332 332 332 328 327 329 326 324 328 333 335 336 336 338 337 335 336 335 332 334 335 336 337 339 340 340
319 319 319 319 319 319 319 319 320 320 319 320 320 320 326 329 326 325 329 331 333 337 335 332 333 332 332 333 333 335 336 336 336 335 334 335 336 335 334 333 333 332 333 333 334 333 334 332 330 329 331 330 326 328 331 331 330 332 331 331 332 333 335 334 329 329 331 326 324 329 332 334 339 338 336 338 336 335 336 332 332 338 339 338 340 341 340
319 318 319 319 319 320 320 320 320 320 320 320 320 321 325 329 326 322 325 330 333 337 336 333 332 332 332 332 333 335 336 336 336 334 334 335 335 334 335 333 334 334 333 333 334 335 334 331 329 329 330 330 328 328 331 331 331 332 333 333 331 331 335 336 331 329 329 324 323 325 327 335 344 341 335 337 336 334 335 330 329 339 342 338 340 341 340
318 318 318 319 319 319 320 320 320 321 320 320 320 320 324 327 325 321 323 329 332 334 335 335 331 331 332 332 333 334 335 334 334 334 334 335 335 334 334 334 334 334 333 334 335 334 333 331 329 327 328 332 333 330 330 330 327 328 332 335 334 333 334 333 328 326 326 325 323 325 330 339 344 338 335 337 336 336 332 324 328 340 342 337 340 340 339
319 319 319 319 318 318 319 320 320 321 320 320 320 321 324 327 326 323 323 327 329 330 333 332 330 330 332 332 331 333 333 332 334 334 334 334 334 334 333 334 334 333 334 337 338 335 332 331 329 327 328 333 334 331 331 331 328 327 331 333 334 335 333 331 327 324 325 325 322 324 333 341 340 337 337 337 334 332 328 326 335 342 339 337 338 338 339
319 319 319 319 318 316 318 319 320 320 320 320 320 321 322 325 325 323 323 325 327 328 328 326 327 330 331 331 331 331 332 333 334 334 333 333 334 333 333 334 333 333 334 336 336 334 330 331 333 331 329 333 336 333 334 335 333 333 335 332 331 332 332 331 329 326 327 329 325 325 333 340 339 336 336 334 334 331 331 337 343 340 338 339 339 338 340
319 319 319 319 317 315 316 318 319 319 319 320 321 320 321 324 326 325 324 325 326 326 325 323 326 329 329 330 330 330 331 333 333 334 334 334 334 333 333 334 334 335 337 334 335 338 334 333 337 336 331 334 339 337 335 336 337 337 338 335 334 332 330 329 330 331 331 330 329 328 333 340 339 336 336 337 338 338 340 343 341 339 339 341 339 339 340
317 318 319 318 317 315 315 316 317 318 317 318 320 320 322 324 325 325 324 323 323 325 325 324 325 325 326 327 329 328 330 331 332 333 333 333 333 333 334 336 335 335 336 334 336 342 340 334 336 337 333 336 341 338 334 334 334 336 338 337 336 337 332 329 333 336 333 329 331 335 337 339 338 338 340 342 342 342 342 340 339 340 340 339 340 339 339
316 317 317 317 316 316 314 314 315 316 316 317 318 320 321 322 323 322 321 322 323 324 325 322 321 321 322 325 328 329 329 329 330 331 331 332 334 333 334 336 335 334 335 334 335 340 339 334 334 335 334 335 337 338 337 335 334 336 339 337 336 339 339 336 337 341 339 336 338 341 339 337 337 338 341 341 340 338 338 339 340 341 340 340 340 338 338
315 316 316 316 316 315 313 312 312 314 315 315 316 319 321 321 321 321 321 322 324 325 326 325 325 325 326 329 331 330 328 328 329 330 330 331 333 333 333 334 333 333 335 335 335 336 337 336 335 334 334 335 336 338 340 339 336 338 338 337 336 338 340 340 340 341 341 339 340 340 338 337 336 337 337 337 336 336 337 338 340 340 340 340 338 336 337
314 315 315 314 314 312 311 310 309 311 314 314 315 318 320 321 321 322 322 324 325 327 328 330 330 330 331 332 331 329 328 327 328 329 329 329 331 334 333 332 332 333 334 334 333 333 333 334 335 333 334 336 336 337 338 338 337 337 337 337 338 338 337 336 339 340 339 339 340 339 337 337 337 337 336 337 337 337 338 339 340 340 339 338 336 335 334
312 312 311 310 309 308 307 307 307 308 311 313 313 316 320 321 321 322 322 323 325 327 329 331 330 330 330 329 328 328 327 327 328 329 329 329 330 333 334 332 331 332 332 332 331 331 332 333 334 333 335 337 336 335 335 335 336 338 338 336 339 340 337 335 339 341 341 342 342 338 336 337 338 336 335 337 338 339 339 338 338 338 337 335 334 332 331
307 307 307 306 306 305 305 306 306 307 309 310 312 316 319 321 321 321 321 322 325 327 329 329 330 330 330 329 328 328 327 327 327 328 329 329 330 330 331 331 331 331 330 330 330 330 331 333 333 333 334 336 335 334 334 334 335 337 336 334 336 339 336 334 338 342 341 341 340 338 337 337 336 336 336 337 337 338 338 336 336 335 334 333 332 331 331
305 305 305 305 304 304 305 305 305 305 306 308 311 316 319 320 321 321 321 322 325 328 329 330 330 330 331 330 329 328 327 327 327 326 327 329 329 329 329 330 330 330 330 330 330 330 331 332 333 332 332 334 333 333 333 334 333 334 335 333 333 336 334 334 339 341 341 341 341 340 340 338 337 336 336 336 336 337 335 335 334 334 333 332 332 331 332
305 305 304 304 305 306 307 308 307 307 306 307 310 315 319 320 320 321 321 322 324 327 329 329 330 329 327 327 328 327 326 326 326 326 327 327 328 328 329 328 329 330 330 330 330 330 331 332 332 332 332 333 333 333 333 333 332 332 333 333 332 332 334 336 339 340 340 340 339 339 340 340 339 337 336 336 336 336 335 334 334 333 333 332 331 331 331
305 304 304 306 309 310 311 310 309 307 306 306 309 314 319 320 320 322 322 323 324 326 327 327 329 329 327 327 329 328 326 326 326 326 326 327 327 328 328 328 329 329 329 329 329 329 331 331 331 332 333 333 332 332 333 332 331 332 334 335 333 333 336 338 339 339 338 338 338 338 339 340 338 336 336 336 335 335 335 335 334 333 333 333 333 332 332
306 306 307 308 309 310 309 309 308 307 306 307 310 316 320 322 323 323 322 323 324 325 327 328 329 329 328 328 329 329 327 327 327 326 327 327 327 328 329 328 329 328 328 328 329 329 329 330 330 330 333 332 331 331 332 331 330 334 337 337 334 335 337 337 336 337 336 337 337 337 338 337 337 336 335 335 335 334 335 335 335 334 334 333 333 333 333
309 310 310 309 309 309 309 309 309 308 306 306 311 318 323 325 325 324 323 323 324 324 326 328 329 328 327 326 327 327 327 327 327 327 327 327 327 328 329 329 328 328 328 327 328 327 327 328 329 328 330 331 331 331 331 330 330 335 340 339 337 337 338 336 335 336 337 337 336 335 335 336 335 335 335 335 334 335 335 336 335 334 333 332 332 332 332
310 310 310 310 310 310 310 309 308 307 305 305 311 318 323 324 325 325 323 323 323 323 326 328 328 329 329 327 327 327 326 326 327 327 327 327 328 328 329 329 328 328 327 327 328 328 327 329 329 328 330 333 331 330 331 329 329 334 340 340 339 339 338 337 335 336 337 336 335 333 335 335 334 335 335 334 334 335 336 336 335 333 331 332 332 331 331
308 309 309 309 309 309 308 308 307 306 305 305 308 315 321 324 325 324 323 323 322 322 325 327 327 328 328 327 327 327 325 325 327 327 327 328 328 328 329 329 327 327 327 327 328 328 329 329 328 329 333 335 333 331 332 331 330 334 337 337 337 337 336 335 335 335 335 335 333 333 336 335 334 335 335 334 334 335 335 335 335 333 331 330 331 330 331
307 307 308 308 308 308 308 307 306 305 306 305 307 313 319 321 321 320 320 321 321 322 324 326 326 327 327 327 328 327 325 325 326 326 328 329 328 328 329 329 327 327 328 327 327 327 328 327 328 329 333 333 332 331 332 332 331 333 336 336 336 335 335 335 334 334 334 334 334 335 336 336 336 336 335 334 334 335 335 334 334 332 331 331 331 331 331
306 306 307 307 308 307 307 306 305 305 306 308 311 316 319 319 319 319 318 319 322 324 326 326 325 326 326 327 328 327 325 325 325 326 327 328 328 329 329 329 328 328 328 327 328 328 328 328 329 329 330 332 332 333 333 333 332 333 335 337 337 335 334 335 334 335 336 335 334 336 337 336 336 335 334 334 334 334 333 333 333 331 331 332 333 333 332
304 305 305 306 306 305 305 305 305 306 308 312 316 319 319 318 318 319 318 317 318 322 326 328 328 327 326 326 328 328 327 326 325 327 328 328 329 329 329 329 331 331 330 329 328 328 329 329 329 330 330 331 333 335 334 332 331 334 337 338 336 334 334 335 334 335 335 335 335 337 335 335 335 335 335 334 334 333 333 333 332 332 332 333 333 333 331
303 303 303 304 304 305 306 308 308 309 313 317 319 318 318 318 318 318 318 316 316 317 321 325 327 328 328 329 329 329 329 327 326 328 329 329 331 331 328 329 332 333 331 330 329 331 333 333 331 330 332 331 332 335 336 333 333 335 336 337 336 335 335 335 334 333 333 334 335 334 334 334 335 335 334 334 334 333 333 333 333 333 333 333 333 332 331
303 303 304 305 306 308 311 313 312 312 315 318 318 317 317 318 319 321 321 320 319 319 319 321 323 325 327 330 330 329 329 328 327 328 330 330 331 332 331 331 332 332 331 331 332 333 333 333 333 331 331 332 335 338 337 335 335 336 337 336 336 336 336 336 336 333 334 334 334 334 334 335 335 334 334 334 333 333 334 334 334 333 333 333 333 332 330
303 304 306 307 308 311 315 317 315 313 314 316 317 319 320 320 320 323 324 322 322 323 322 321 322 323 324 327 329 329 328 328 328 329 331 331 330 331 333 333 332 331 330 331 332 332 330 332 333 331 330 335 339 337 336 336 335 335 335 336 336 337 337 336 335 334 334 334 334 333 334 334 333 334 334 333 333 333 333 333 333 332 331 332 332 331 330
305 306 308 309 310 312 316 317 314 312 313 316 317 320 322 320 319 321 324 323 323 325 325 324 324 324 324 325 328 328 327 327 327 327 330 331 330 330 332 332 332 331 329 330 333 332 330 332 333 331 333 339 340 336 335 336 335 334 335 337 337 337 337 335 334 334 334 334 333 333 333 333 333 333 333 333 332 332 332 331 331 331 331 331 329 328 329
307 308 309 310 312 313 314 315 313 312 315 318 318 319 321 322 320 320 324 325 324 324 325 325 326 326 326 325 326 327 327 328 327 326 328 331 331 330 332 333 332 330 330 331 333 332 330 331 331 331 335 340 339 334 332 334 335 335 336 337 336 337 336 334 334 334 334 333 333 332 332 332 332 332 332 332 332 332 332 332 332 330 330 330 328 326 328
308 309 309 310 312 312 313 313 315 315 317 319 319 319 320 322 322 321 324 326 326 325 326 326 326 327 327 325 325 326 327 328 329 327 327 330 331 330 332 333 332 330 331 333 332 330 330 331 331 330 336 341 339 334 332 334 334 335 336 336 335 335 335 333 334 334 333 333 334 333 333 333 333 333 333 333 333 333 332 332 330 328 328 329 329 327 329
307 308 309 310 311 312 312 313 315 318 318 319 320 320 321 322 323 323 323 325 326 327 327 327 326 327 327 326 325 325 326 329 330 328 328 330 331 330 331 332 331 331 331 332 331 331 330 330 330 330 336 341 339 335 334 334 333 333 334 335 335 334 334 334 334 334 335 335 334 334 334 333 332 332 332 332 331 331 330 330 329 329 328 329 329 328 330
307 308 309 311 312 313 314 314 316 319 320 320 320 320 321 321 322 324 323 324 326 327 328 328 327 326 327 327 326 325 326 328 330 329 327 328 330 330 330 331 332 331 331 331 331 330 330 330 331 333 337 339 337 336 335 333 332 332 334 335 334 334 334 335 335 335 335 335 334 333 333 331 331 331 331 331 330 329 329 329 329 329 329 329 329 328 330
308 309 310 312 313 314 316 317 317 318 320 321 320 320 320 320 322 324 325 324 325 326 328 329 328 327 327 327 327 327 328 327 328 328 327 327 327 329 330 330 332 331 331 330 329 329 329 330 331 333 336 338 339 338 336 333 334 335 336 335 336 336 336 336 337 336 334 333 333 332 331 331 330 330 331 331 330 329 329 329 329 328 329 329 329 328 329
309 309 311 313 314 315 317 318 317 316 319 320 320 320 321 321 322 324 325 326 326 327 328 329 329 329 329 328 327 327 329 327 326 327 326 325 327 329 331 331 331 331 330 329 329 329 330 330 331 333 335 336 336 338 338 336 336 336 336 336 336 337 337 337 336 335 333 333 332 331 331 331 331 330 330 329 329 328 328 329 328 328 328 328 328 328 329
309 310 312 314 315 315 315 317 317 316 317 319 321 322 322 321 322 324 325 326 327 328 329 329 328 329 330 330 328 328 329 328 328 327 326 325 327 331 332 331 331 331 330 329 328 329 331 332 333 334 334 332 333 337 340 339 335 334 335 335 337 337 337 337 335 333 332 333 332 331 331 331 331 330 330 329 328 328 328 328 328 328 328 328 328 328 328
309 311 312 314 315 315 314 316 317 317 317 319 320 321 321 322 322 323 324 326 326 327 329 330 329 329 329 330 329 328 329 329 328 328 327 325 327 330 332 331 330 330 330 329 328 329 331 332 333 335 335 334 335 337 339 338 335 333 334 335 336 337 337 336 334 333 333 332 332 332 332 332 331 330 330 329 328 328 328 328 329 328 328 329 329 328 328
308 310 312 314 315 315 314 315 316 317 318 318 319 320 321 322 322 323 325 327 327 326 326 328 329 329 329 330 328 328 329 330 328 328 328 326 326 328 330 330 329 329 329 328 330 331 331 333 335 337 337 336 336 337 339 338 335 332 333 335 336 337 337 335 333 332 333 332 332 332 332 331 331 330 330 329 329 329 329 329 328 328 328 328 328 328 328
309 310 312 314 315 316 316 315 315 316 317 318 319 320 321 321 322 323 325 327 327 326 326 327 328 328 328 329 328 327 329 330 328 327 328 327 327 328 329 328 329 330 329 329 331 333 333 333 336 338 337 337 336 337 339 338 334 331 333 335 336 337 336 334 333 332 333 332 332 332 331 331 331 330 330 330 330 329 328 328 327 327 327 328 328 328 328
309 310 312 313 314 315 316 316 316 316 317 318 319 320 321 321 322 323 325 326 327 327 327 329 330 328 327 328 327 327 327 329 328 328 328 330 330 329 328 328 329 331 332 332 332 332 333 333 334 336 337 338 338 337 337 335 333 332 334 335 335 335 334 334 333 332 332 332 332 332 331 332 331 331 330 329 329 329 328 327 326 327 327 327 327 328 328
309 310 311 312 313 314 315 316 316 317 319 319 320 320 321 321 323 324 325 326 326 326 327 328 327 326 325 327 327 327 327 328 329 328 329 331 330 330 331 331 330 331 331 331 330 330 332 334 335 336 337 338 338 337 335 333 333 334 334 334 335 334 333 333 332 332 332 332 332 332 332 332 332 331 330 330 329 328 327 326 326 326 326 327 327 328 329
Wind_Speed
25 27 28 29 31 33 34 36 37 38 39 37 34 30 18 11 9 1 10 13 13 10 7 7 9 8 11 15 16 11 6 8 9 8 9 9 7 8 8 9 10 10 12 10 9 10 8 10 12 9 8 11 13 14 17 17 14 8 7 10 11 9 5 7 7 5 7 9 7 7 9 10 10 5 5 7 6 5 4 4 5 2 4 4 3 2 2
25 25 27 29 30 31 33 34 34 35 37 37 36 31 20 16 15 7 11 14 13 9 7 7 7 8 12 15 14 12 10 9 9 8 7 7 7 7 7 8 9 10 14 12 8 11 9 8 12 9 7 10 11 12 14 14 13 10 8 9 9 7 6 5 5 5 6 7 5 6 6 6 6 5 6 9 7 8 6 4 5 3 2 2 2 2 1
24 25 26 27 29 30 32 33 32 32 32 32 33 31 24 15 12 8 7 13 14 12 10 9 9 6 8 12 11 8 8 12 15 13 9 8 8 6 5 10 12 12 14 12 8 10 8 8 10 10 7 4 5 9 10 12 14 12 10 10 9 7 6 5 5 7 6 3 2 3 5 5 4 8 14 10 6 8 8 1 2 2 3 2 3 4 5
24 24 25 26 27 29 31 32 32 30 28 28 30 27 19 10 5 6 7 9 13 16 16 15 11 7 9 10 6 5 5 12 20 18 10 9 10 6 5 10 11 9 11 11 9 12 10 8 7 8 8 5 8 11 10 11 11 5 3 8 9 7 8 9 7 5 2 4 2 5 10 8 3 7 16 15 9 10 9 3 2 1 1 2 4 6 9
23 23 24 25 26 28 29 31 32 30 25 23 26 23 13 9 4 4 6 9 10 13 14 10 7 9 12 9 3 6 8 7 14 17 12 9 10 8 6 7 8 7 8 10 9 10 11 10 8 8 10 8 9 13 11 13 9 3 1 11 9 5 8 8 7 5 5 9 9 9 13 10 6 9 14 13 11 11 10 5 2 3 1 1 6 9 11
22 23 23 24 25 26 28 30 31 31 24 17 20 19 12 8 6 4 4 5 7 9 9 9 9 10 14 10 6 11 11 6 9 12 11 9 10 8 6 8 9 8 7 8 7 5 7 10 8 7 9 6 4 9 8 12 10 4 8 12 6 5 6 3 3 6 7 6 7 9 11 9 10 14 14 12 13 12 10 6 2 3 2 3 8 9 8
22 22 22 23 24 24 27 29 29 31 26 17 15 15 13 13 10 7 7 6 10 15 13 11 8 7 8 8 8 9 10 10 8 5 6 10 10 7 5 9 10 9 8 8 6 3 3 3 5 5 6 5 2 6 7 10 13 11 11 8 4 5 5 2 3 5 4 4 5 7 9 9 11 15 14 12 12 12 9 5 2 3 5 1 6 7 8
21 21 21 22 23 23 26 28 27 29 27 20 15 14 15 15 12 12 13 9 12 17 16 11 5 4 3 7 9 10 11 10 6 4 9 11 7 4 3 10 10 8 7 5 5 4 3 3 7 7 5 5 5 4 5 6 11 13 10 7 7 7 4 2 4 5 3 3 6 7 9 10 12 15 15 12 10 10 9 6 4 4 5 4 2 9 10
20 20 20 20 21 21 23 25 26 27 26 23 18 14 15 15 13 13 13 8 8 12 12 7 2 4 4 8 7 10 11 6 6 10 13 11 8 5 2 6 7 2 5 1 2 5 8 5 9 8 5 5 6 2 4 6 8 10 8 8 9 9 5 2 4 7 5 4 5 10 11 12 13 13 13 11 8 7 6 4 4 2 2 2 1 5 7
20 19 19 19 20 20 21 24 24 24 23 23 20 15 16 19 18 15 13 8 8 9 8 4 3 2 5 10 9 9 10 7 7 10 8 3 9 11 1 6 6 2 5 5 7 3 4 5 7 8 8 10 7 5 8 9 6 7 8 8 5 5 4 4 4 6 4 5 2 8 12 10 7 8 12 9 4 4 5 4 2 3 3 2 1 4 8
19 19 18 18 19 18 19 21 22 22 21 22 22 18 16 20 21 19 15 8 8 9 4 3 5 2 4 11 14 10 11 12 10 9 5 6 15 23 7 5 2 3 7 7 8 8 6 4 5 6 9 13 10 8 9 8 5 4 6 7 4 3 5 6 4 4 5 5 7 9 11 6 3 7 11 11 7 7 8 7 5 5 3 3 6 9 10
18 18 17 18 18 17 18 18 19 20 18 18 20 17 14 16 19 18 14 8 7 7 3 3 4 5 8 16 19 16 14 13 9 11 9 5 14 26 11 5 2 3 4 4 6 7 8 8 6 6 8 10 11 10 9 8 8 8 8 6 5 5 6 5 4 4 6 5 8 10 8 2 3 6 8 11 11 10 9 9 9 8 4 3 5 9 9
17 17 17 18 17 16 17 17 16 17 16 16 17 15 13 15 16 15 13 9 6 5 5 3 4 6 8 12 17 19 17 11 9 15 14 5 8 17 7 4 2 2 2 5 7 6 6 6 4 4 5 5 8 9 10 11 11 10 9 8 7 7 6 4 5 5 4 5 7 6 3 1 1 3 6 8 9 9 9 8 9 9 5 1 3 7 9
18 17 17 17 17 16 16 16 15 16 15 14 15 14 12 12 14 14 13 8 7 8 8 5 3 6 9 11 12 15 15 10 7 12 16 13 10 13 9 4 2 2 1 3 5 3 3 3 2 4 3 3 5 6 8 10 10 10 9 9 8 8 6 5 5 3 2 5 6 1 3 2 0 1 2 4 5 6 7 6 7 9 4 4 6 7 7
18 18 17 16 16 16 16 16 15 16 14 13 13 12 10 9 12 14 12 9 9 8 7 4 3 7 11 8 6 9 10 7 5 5 11 17 14 13 14 12 7 6 5 4 3 2 2 1 2 3 4 4 5 3 4 7 6 5 7 8 7 7 6 5 4 3 3 7 6 1 1 2 5 5 4 3 4 6 6 5 4 6 5 5 5 5 5
20 19 17 16 16 15 16 16 15 16 14 13 12 9 7 7 11 13 13 11 8 5 6 7 10 12 11 6 3 8 8 5 3 2 4 10 13 11 14 18 15 9 5 3 3 2 1 1 1 0 2 5 5 2 3 5 4 4 7 10 10 8 7 6 5 4 5 7 7 5 3 4 4 5 3 3 4 5 6 5 2 5 7 4 5 5 3
21 20 17 16 17 15 16 16 16 16 14 13 12 10 7 6 12 15 13 12 10 11 14 15 15 13 9 4 3 6 10 9 5 2 1 4 10 8 10 18 19 12 7 3 2 2 3 2 2 3 4 4 3 2 3 5 6 5 6 9 10 8 7 6 7 7 7 7 7 4 1 3 3 4 4 4 5 5 6 6 2 3 6 5 4 4 3
21 21 18 18 18 16 15 16 16 16 14 12 12 9 7 5 13 15 13 12 12 13 16 15 14 12 9 6 4 5 9 10 6 3 1 3 7 7 8 14 15 11 10 6 2 3 4 3 3 6 5 2 2 1 2 4 6 6 4 5 7 7 6 6 7 7 7 8 8 5 1 4 4 5 4 4 5 6 5 2 1 3 4 2 2 5 7
20 21 20 19 20 18 16 16 16 16 15 13 12 8 4 5 11 13 13 12 11 14 20 18 15 14 10 9 8 7 7 6 4 3 3 2 5 10 12 13 11 7 7 6 2 3 5 4 3 5 5 0 3 3 3 3 4 5 5 3 3 4 4 5 7 7 5 4 7 5 1 1 2 3 3 3 3 5 2 3 4 5 5 3 4 8 9
19 19 19 19 21 20 17 16 16 16 15 13 13 10 4 4 9 12 11 12 13 19 24 19 13 14 13 10 10 10 8 5 2 3 4 2 6 10 8 7 8 6 3 4 3 2 3 3 3 4 4 1 2 3 3 3 4 5 3 2 2 2 3 4 4 3 3 3 4 3 1 3 4 1 4 5 3 2 5 6 7 6 6 6 8 8 6
19 20 20 20 21 21 19 18 16 16 15 13 13 12 3 1 5 10 10 12 14 16 18 15 15 17 15 13 13 11 8 7 6 6 6 6 7 8 3 2 5 4 2 2 2 0 1 2 1 2 3 1 1 1 4 5 5 3 3 4 3 1 2 4 2 2 3 3 2 3 1 3 3 5 5 5 5 6 7 6 8 8 7 8 10 8 5
21 21 22 23 23 22 20 19 18 17 16 13 12 13 9 7 9 11 12 15 16 18 20 22 21 19 15 14 15 13 10 9 7 6 6 8 9 7 3 3 4 1 1 4 3 0 2 3 1 0 1 1 1 2 4 5 4 1 2 4 3 0 2 3 1 1 1 1 0 1 1 2 6 6 5 5 5 4 4 4 8 10 8 9 10 8 8
25 25 27 27 26 24 22 21 20 18 17 15 14 13 13 13 12 12 14 17 18 22 26 23 19 18 17 15 14 13 10 8 7 6 5 6 8 7 3 1 3 2 2 3 3 3 3 3 2 1 1 1 1 1 2 2 2 2 3 4 3 4 3 4 3 2 3 4 2 1 0 3 3 0 1 3 3 3 5 7 9 10 10 9 9 9 9
30 30 31 30 28 27 26 24 22 21 19 17 16 15 14 13 11 11 14 15 15 17 18 17 15 15 13 8 6 7 9 9 8 7 6 5 7 5 2 3 5 4 4 5 3 6 5 4 3 3 2 1 1 1 2 1 1 3 4 3 1 4 7 5 2 1 3 2 1 1 2 3 3 2 2 2 3 6 8 10 10 11 11 11 11 10 9
33 33 33 32 29 27 27 25 24 22 20 18 17 16 14 11 8 8 10 12 13 13 11 12 13 11 6 4 4 7 8 9 8 7 8 7 6 6 3 5 6 5 5 5 6 7 6 4 4 4 3 2 2 3 2 1 2 4 3 2 1 2 6 7 1 4 1 1 2 1 3 3 3 4 5 5 7 9 10 11 12 12 12 11 11 9 7
28 29 28 26 23 22 22 22 21 21 20 19 16 16 15 12 9 8 8 10 14 14 10 10 13 10 8 9 10 8 5 6 8 9 10 9 8 8 7 6 5 5 6 7 8 8 7 5 3 3 3 1 1 4 3 2 3 5 5 4 2 4 5 4 2 5 4 2 1 2 4 3 5 7 9 7 6 9 11 12 12 12 11 11 9 6 6
20 20 19 17 16 15 15 16 17 18 18 18 16 15 16 13 10 9 7 7 10 10 8 9 13 16 18 19 17 13 10 9 10 11 12 11 11 10 9 8 7 8 8 8 8 8 8 5 4 5 5 3 4 6 6 4 5 5 5 5 4 4 5 4 4 5 3 3 5 7 5 3 6 9 13 11 10 10 12 12 11 11 10 9 9 7 7
16 15 13 11 11 11 12 13 16 17 17 15 14 15 16 14 10 9 8 7 8 9 10 15 20 22 21 18 14 12 12 12 11 11 12 12 11 11 10 10 9 9 9 8 7 7 6 5 5 7 5 2 3 6 5 4 5 6 5 6 6 6 5 1 4 4 4 6 9 10 6 3 4 8 13 13 12 11 11 11 11 11 9 8 8 8 6
11 10 10 9 10 11 13 15 16 17 15 12 11 12 14 12 8 8 8 8 9 12 15 18 18 17 15 12 10 9 10 11 11 11 12 12 12 13 12 11 10 10 10 10 9 7 7 7 9 9 4 2 2 5 5 5 6 5 3 3 2 3 5 5 4 3 6 9 10 11 9 7 8 10 12 12 11 11 11 11 11 10 9 7 8 7 5
4 6 8 10 12 13 14 16 16 15 12 8 5 7 8 7 7 8 10 10 9 10 13 13 11 12 15 16 16 14 11 10 11 12 13 13 13 13 12 12 12 11 11 11 10 8 8 9 11 11 7 7 5 5 4 6 6 2 2 3 2 4 5 4 3 2 7 12 10 8 8 10 11 12 12 11 10 9 10 11 10 9 8 7 7 7 5
5 6 9 11 12 12 14 15 15 14 11 6 6 7 6 6 10 13 15 15 11 8 10 11 12 14 17 16 15 14 12 10 11 12 12 13 13 13 13 13 12 11 11 12 10 10 9 8 8 10 7 5 5 4 4 6 7 1 5 5 4 4 4 3 0 2 8 14 10 7 9 10 11 12 12 11 10 8 9 11 10 9 8 6 6 6 4
5 8 10 11 12 13 15 16 16 15 11 9 14 15 8 5 10 16 17 16 14 9 7 9 10 9 8 9 11 11 11 11 11 11 11 12 13 13 13 13 12 12 13 11 9 9 9 8 9 11 6 3 4 4 5 7 6 3 7 7 7 6 5 3 1 2 5 10 9 9 10 10 10 11 11 11 10 9 11 12 9 8 6 4 4 5 4
7 8 10 12 14 15 16 16 16 15 12 12 19 21 12 5 7 11 11 12 13 10 7 8 7 5 5 8 8 8 10 10 10 10 11 11 11 11 12 13 13 11 11 10 8 7 8 9 9 7 2 3 3 6 5 6 6 4 7 6 5 5 4 3 2 3 5 8 9 8 9 10 9 10 11 10 9 10 11 11 8 6 5 6 6 7 7
10 11 12 14 15 16 16 17 16 14 10 9 12 15 13 8 7 6 5 6 8 8 9 8 6 6 6 8 8 6 10 11 10 9 9 8 9 9 9 10 10 9 8 9 8 8 8 9 9 5 3 4 7 7 5 8 9 5 6 6 6 6 5 4 3 5 7 8 6 6 9 11 11 11 11 10 9 9 10 9 7 6 6 2 2 6 9
14 15 15 16 17 18 18 16 14 11 8 6 6 9 12 13 12 10 7 6 6 6 8 9 8 6 5 7 6 5 9 11 10 9 8 8 9 10 9 7 7 6 5 6 8 8 6 6 7 6 4 5 7 5 5 7 8 4 6 7 6 6 7 7 6 5 5 4 4 8 11 11 11 11 10 10 9 9 9 8 7 6 2 6 10 8 6
18 19 19 18 17 16 14 12 9 7 6 4 6 10 11 12 13 12 10 10 10 8 7 7 8 6 5 6 4 2 5 9 10 8 9 8 8 9 11 8 4 1 2 4 8 7 4 4 6 6 5 5 6 6 6 8 8 6 5 7 7 7 8 9 8 6 5 5 7 9 10 9 10 11 10 9 9 8 7 5 4 3 1 4 6 3 2
15 15 14 11 10 9 7 5 5 7 9 7 6 9 10 10 10 9 9 11 13 13 11 9 7 8 8 6 4 6 6 7 8 9 10 8 5 7 9 7 2 1 3 6 7 4 1 3 5 5 5 6 5 4 2 4 6 6 5 5 6 7 7 9 10 9 8 9 10 10 10 10 11 10 9 9 8 7 6 4 3 2 0 1 2 2 1
9 7 6 4 4 5 4 3 4 7 10 10 7 5 7 9 8 7 8 9 10 12 13 11 10 12 13 9 6 7 6 3 2 5 6 4 2 4 5 3 1 1 4 6 5 4 3 4 4 6 7 7 4 1 1 2 3 4 5 5 6 6 7 9 11 11 11 10 10 10 10 11 10 9 8 8 8 7 6 5 4 3 1 1 3 2 1
5 4 3 5 5 3 2 2 4 5 7 10 8 6 8 10 8 7 9 10 9 11 13 13 14 16 14 9 8 11 10 5 4 4 3 2 2 2 1 0 1 3 5 4 2 4 5 5 4 6 7 4 1 1 0 3 5 5 5 6 6 7 8 10 11 11 10 9 9 9 9 10 10 9 8 8 7 7 7 6 4 4 3 1 1 2 3
3 4 5 6 6 3 0 3 4 4 6 9 8 7 8 10 9 8 8 8 8 9 12 13 15 18 18 13 10 10 10 9 7 5 2 3 3 1 0 1 1 2 5 4 1 2 4 5 5 6 4 1 3 5 4 3 5 6 7 7 7 8 9 10 10 9 9 9 9 8 9 10 9 8 8 8 7 6 6 6 6 6 5 3 1 2 3
3 5 6 7 7 6 3 3 5 5 7 9 8 6 5 7 10 10 8 6 6 8 13 15 13 14 18 19 15 11 9 9 10 8 5 2 2 1 1 1 1 2 4 3 2 3 4 4 5 5 2 1 2 4 3 2 5 5 8 9 8 9 11 11 11 10 10 10 10 9 9 9 8 8 7 7 6 5 6 7 8 6 4 2 2 3 4
6 6 7 8 7 5 2 3 5 7 8 8 7 5 4 5 8 9 8 7 6 8 12 15 14 12 15 19 18 14 11 10 10 9 5 2 3 3 2 1 1 4 4 1 1 3 3 3 5 6 3 3 6 9 10 7 5 5 7 9 11 12 13 13 12 12 12 11 11 11 10 10 9 9 8 7 7 7 7 7 6 4 4 4 4 3 2
7 6 5 5 5 2 1 4 6 7 5 4 4 4 4 5 6 6 6 8 9 9 10 13 15 13 13 14 15 14 10 8 7 7 5 3 5 4 3 2 3 2 1 0 1 3 4 5 6 5 4 6 7 10 13 13 11 9 8 11 14 15 15 14 14 13 13 13 13 13 12 12 11 10 8 8 8 7 6 5 4 3 3 4 4 3 2
5 5 3 3 4 4 4 4 7 6 4 3 5 5 6 7 7 6 6 8 10 11 11 12 13 13 11 11 13 13 10 7 6 6 6 5 5 4 4 4 3 2 1 2 3 4 5 6 5 3 5 6 7 9 11 14 13 11 11 14 17 16 15 16 16 16 15 15 14 13 13 12 11 10 9 8 8 7 6 6 5 3 3 3 3 3 3
4 6 5 3 4 6 5 4 5 6 5 4 6 6 6 8 8 7 8 11 12 11 12 12 12 11 12 12 11 10 9 8 6 5 5 5 5 5 4 3 3 2 3 4 5 5 6 7 5 5 8 9 8 8 10 13 14 14 14 16 18 19 18 18 19 18 17 16 15 14 14 13 12 11 10 9 7 6 6 7 5 4 4 4 3 3 4
5 8 7 2 2 6 5 3 3 5 5 6 8 8 8 9 9 7 8 11 12 11 12 13 11 9 8 9 8 8 9 9 7 6 6 6 4 3 3 2 3 4 5 5 6 7 7 6 4 6 9 10 8 7 7 10 14 17 16 16 17 21 20 19 19 19 18 17 16 15 14 14 13 12 11 9 7 5 5 5 4 4 4 3 3 3 3
5 8 8 4 3 5 6 5 5 7 8 10 12 14 14 13 11 9 10 11 9 6 6 10 11 8 7 7 7 7 8 8 6 6 7 6 3 2 2 3 4 4 5 6 7 7 5 3 3 5 8 8 8 7 4 6 13 18 16 16 16 21 21 19 19 19 18 17 16 15 14 14 13 11 9 8 7 6 4 3 3 4 4 4 4 4 4
4 5 5 4 3 4 6 7 8 10 12 13 14 15 15 14 13 11 10 9 6 3 2 6 8 7 5 7 8 7 6 6 6 6 6 5 3 3 3 4 5 5 5 7 7 5 3 1 1 3 6 6 6 7 5 6 12 18 18 18 17 20 21 19 19 19 18 17 16 14 13 13 11 8 5 5 6 6 5 4 4 4 5 6 6 6 5
5 4 4 4 4 5 8 10 10 9 12 15 15 14 15 16 14 10 6 7 8 6 5 5 6 5 3 4 5 6 5 4 4 4 5 5 5 4 5 5 6 6 6 5 4 4 2 2 1 2 4 4 5 7 6 8 14 20 22 21 19 19 20 19 19 19 18 16 15 14 13 12 10 7 5 5 5 4 4 4 4 3 4 6 7 8 8
5 5 6 6 5 4 6 8 8 6 9 13 15 14 15 15 12 8 5 7 11 11 8 7 8 7 5 4 3 5 5 4 3 5 6 6 4 4 6 7 6 5 4 3 2 2 4 5 4 2 3 4 5 6 8 13 18 23 22 20 18 19 20 18 18 18 17 15 14 13 12 10 9 8 6 5 4 4 4 4 4 3 3 5 6 7 8
5 6 8 10 9 8 7 7 7 7 8 11 12 12 12 13 11 9 8 9 11 12 10 8 7 6 5 5 4 4 4 5 5 6 5 4 3 5 7 7 4 2 2 1 1 2 4 5 3 2 3 4 6 7 10 15 20 22 20 18 16 17 18 17 17 16 14 12 12 11 10 9 8 7 6 5 4 4 5 5 4 3 4 5 5 6 8
6 6 7 10 12 13 12 12 12 12 12 13 12 10 9 9 7 7 8 9 9 9 9 9 7 5 4 5 5 4 3 4 5 5 4 4 5 4 4 3 1 3 4 4 3 3 4 3 2 2 2 5 6 9 13 16 18 18 17 16 15 15 16 16 15 13 12 11 10 9 8 8 8 7 6 5 5 5 4 4 4 4 4 4 4 5 5
Wind_Direction
326 331 334 337 340 342 345 349 351 350 347 347 348 349 340 305 306 214 178 188 183 197 238 233 224 236 237 239 246 248 251 258 257 254 248 240 224 219 230 244 246 248 255 249 214 198 204 218 224 211 196 211 212 190 182 204 225 222 204 211 214 218 248 273 257 205 199 222 246 259 261 278 290 285 273 276 275 278 293 313 297 296 67 47 66 96 211
323 328 332 335 338 341 343 348 352 353 349 346 344 342 333 309 299 262 194 189 195 221 246 235 233 236 237 246 252 253 256 261 263 257 245 235 220 217 222 229 233 242 256 256 216 192 193 210 229 226 201 211 204 172 170 194 212 215 204 193 194 204 212 236 267 262 222 202 214 241 249 265 281 298 273 248 259 290 296 316 327 338 32 35 85 104 176
319 324 328 332 336 339 341 345 351 354 350 344 340 337 327 304 283 274 228 199 207 239 258 264 270 271 281 284 277 266 275 293 293 277 258 252 237 224 220 215 211 220 243 252 215 192 198 210 227 237 233 213 147 147 174 199 207 210 204 193 194 209 219 212 229 259 250 222 252 275 280 285 301 325 307 275 249 278 278 295 46 332 307 6 99 143 159
315 321 325 329 334 337 340 343 348 355 353 343 338 335 323 293 283 327 303 246 235 244 250 266 287 314 311 292 295 322 299 294 297 286 265 257 249 241 232 220 216 221 240 248 215 193 198 213 230 235 227 195 146 157 188 215 214 189 173 216 218 213 227 222 216 250 255 144 155 274 281 281 275 302 298 286 267 260 254 236 110 165 308 58 131 148 151
311 317 321 326 332 335 338 341 345 353 356 346 338 334 316 294 310 356 329 306 284 257 250 275 329 342 313 291 284 281 244 256 293 278 251 241 242 243 245 232 226 224 239 253 236 201 193 206 227 233 228 216 162 157 185 218 214 94 171 230 235 233 233 221 202 209 186 159 169 226 258 266 249 262 279 283 280 272 269 277 157 164 281 81 156 160 162
306 313 317 322 329 333 335 339 344 350 356 356 344 336 329 329 343 9 7 333 292 277 288 319 349 345 323 309 276 260 249 264 292 271 260 258 238 230 240 233 224 216 226 249 249 237 215 210 218 226 232 241 160 145 189 216 207 212 235 225 228 262 250 223 209 214 200 187 191 219 250 259 248 262 282 287 280 272 265 268 203 204 279 138 163 176 169
302 308 313 319 326 331 334 337 342 348 355 4 358 350 352 352 347 344 352 329 284 284 298 310 323 353 343 312 287 276 264 265 268 266 292 276 236 211 250 252 232 211 213 224 226 272 308 240 248 258 248 265 229 167 191 210 200 210 233 222 195 240 246 198 220 232 219 253 255 235 246 253 249 262 269 264 270 279 279 290 284 274 306 202 155 125 107
298 303 309 316 321 328 332 334 341 347 353 5 12 9 4 357 345 332 331 321 288 282 287 295 314 33 346 280 285 293 280 276 289 301 299 285 246 176 251 273 258 212 202 214 205 235 283 307 308 292 244 276 292 203 185 204 193 192 219 223 183 197 237 171 200 242 236 255 282 261 243 247 257 267 267 257 264 277 281 297 294 270 303 313 129 104 97
293 299 305 311 317 325 330 333 340 346 354 5 10 7 360 351 341 326 316 303 284 284 286 293 28 63 302 271 281 296 290 306 330 297 285 285 272 232 190 326 322 203 186 189 125 180 200 233 310 307 233 267 310 244 224 241 200 179 206 225 190 183 213 179 199 245 220 173 277 280 261 251 250 262 275 270 259 261 270 297 325 306 283 281 205 125 123
288 293 300 306 312 320 327 331 337 343 353 4 6 2 355 349 345 334 316 295 284 281 278 304 19 75 252 266 286 299 287 284 292 282 266 248 285 285 113 61 10 99 122 52 39 51 186 216 293 296 254 266 273 231 257 268 224 183 206 220 188 165 221 230 218 246 229 154 199 279 275 264 255 282 302 297 285 313 300 282 332 336 280 261 46 102 115
283 288 294 301 306 314 322 329 336 341 350 0 2 1 355 347 343 335 323 305 278 268 260 6 352 316 269 296 304 303 287 278 276 288 315 24 331 314 313 114 36 64 78 34 5 350 326 280 282 275 257 265 258 240 270 282 255 248 242 218 163 139 228 244 233 249 256 195 179 226 256 260 246 286 314 326 327 332 318 304 325 338 332 77 101 117 126
278 284 290 295 301 308 316 324 332 339 347 355 356 358 355 345 339 333 329 319 292 293 338 34 349 341 345 326 309 293 280 277 288 303 310 13 336 314 299 167 243 10 58 330 329 342 316 283 262 257 252 261 260 247 254 252 232 244 253 223 177 173 206 234 242 244 262 245 207 220 247 256 222 267 330 349 335 328 324 314 314 318 334 71 115 131 137
276 281 285 290 295 300 307 317 326 333 340 344 349 0 3 348 339 338 335 322 302 321 340 346 5 4 341 313 292 280 271 277 321 323 310 312 315 310 318 132 230 311 41 324 341 1 312 276 258 268 268 282 285 265 250 243 226 222 234 226 206 206 209 222 240 241 274 276 237 230 284 8 108 337 353 345 327 326 319 307 309 311 311 13 110 123 135
276 279 281 286 291 293 299 308 316 325 335 338 343 0 10 350 336 340 340 325 313 321 311 302 350 338 309 299 297 295 290 291 319 325 323 326 306 292 312 0 344 317 335 337 353 346 292 295 313 302 292 277 279 269 257 252 231 214 228 235 223 228 235 235 233 223 255 259 235 202 3 337 19 37 305 291 305 316 313 308 309 313 329 77 85 103 128
274 278 279 282 286 289 293 299 306 317 328 331 336 360 17 347 328 335 333 313 309 308 280 260 329 320 302 295 304 312 306 298 294 305 326 331 319 296 302 313 318 313 308 327 350 304 290 338 1 343 325 287 275 281 284 277 255 231 248 251 234 219 223 236 241 211 229 252 247 216 41 256 251 236 211 232 279 287 302 303 298 329 12 76 101 107 118
269 272 275 281 284 286 289 293 299 309 319 326 330 352 15 330 321 340 334 308 301 290 269 301 337 327 304 290 343 339 318 297 308 337 333 317 309 311 318 312 303 292 289 345 11 324 278 177 151 312 283 276 284 294 288 290 296 307 299 282 261 233 215 227 241 229 237 253 256 250 216 196 227 240 219 223 247 265 293 286 278 11 24 60 108 115 125
266 269 272 279 283 284 286 288 293 301 313 325 325 338 12 336 321 340 338 309 297 284 278 299 326 326 309 308 19 337 304 292 295 318 51 293 287 297 318 309 301 294 293 326 33 293 268 225 239 256 245 258 284 282 281 281 261 266 317 317 294 270 246 239 239 236 240 245 249 258 237 146 167 204 225 230 225 245 268 255 227 39 39 55 76 101 122
262 267 273 278 281 283 283 284 287 293 303 317 319 333 21 346 311 325 331 314 301 286 284 304 320 314 316 334 320 272 287 306 317 304 257 261 278 288 292 290 297 313 318 308 203 231 262 234 239 260 250 254 338 307 302 303 265 252 289 318 301 286 274 262 258 257 252 249 255 255 147 123 163 190 214 238 229 240 255 235 99 65 74 77 83 113 119
256 262 269 275 281 283 280 279 284 287 295 308 310 311 350 325 305 319 330 321 305 291 293 301 300 296 310 328 311 291 295 317 338 310 273 239 302 309 293 281 293 320 319 303 265 259 269 252 254 267 254 280 21 347 318 321 302 292 296 290 276 283 287 275 270 277 283 286 288 286 153 125 224 180 107 33 286 253 245 108 102 93 92 95 102 109 116
252 257 264 272 279 283 280 277 280 283 289 301 305 304 341 11 326 325 329 321 312 302 295 289 293 312 325 320 310 317 325 323 323 293 276 279 323 312 288 278 308 331 333 317 320 299 281 278 282 283 276 309 38 350 310 276 277 295 302 285 266 279 289 281 273 295 318 317 323 332 243 266 280 182 94 38 9 173 151 126 113 100 92 95 99 103 121
252 255 262 270 277 281 280 278 277 280 284 290 297 299 304 89 314 313 313 309 303 296 290 292 304 313 309 293 290 298 299 294 296 295 287 288 302 304 278 260 318 343 8 308 290 232 296 289 260 281 302 333 97 358 299 271 264 273 269 269 284 302 289 292 302 344 320 306 358 17 303 281 0 56 81 62 72 126 146 135 115 106 98 100 100 91 91
256 258 263 269 275 278 280 279 276 276 278 280 286 287 276 260 274 287 298 301 291 281 286 299 304 299 289 279 276 272 270 275 279 286 294 291 284 278 245 226 253 265 341 301 289 285 279 264 235 296 339 2 75 353 327 298 279 274 238 252 278 235 189 221 262 321 307 224 118 329 310 68 55 51 76 98 106 135 156 132 117 114 108 108 109 100 90
257 260 264 267 270 275 279 280 278 275 273 274 275 275 277 281 283 290 303 306 297 290 292 294 289 282 281 272 255 246 250 254 250 252 269 284 279 260 206 195 279 284 22 359 326 305 296 286 281 263 229 187 151 52 2 329 293 296 259 234 267 308 259 206 204 213 179 155 151 231 277 110 112 117 187 150 154 165 146 127 117 114 113 113 115 113 107
256 260 263 266 268 273 275 276 276 274 269 268 268 267 273 282 292 308 316 312 304 302 301 291 276 274 283 276 236 232 239 233 230 241 249 267 279 258 159 52 340 317 15 23 323 285 290 296 283 269 273 26 36 205 186 171 256 285 279 233 253 319 291 260 225 160 197 203 104 101 106 90 101 125 137 100 77 91 113 119 112 110 114 115 114 113 113
260 261 264 266 268 269 269 270 272 269 263 261 262 262 266 270 279 299 311 313 312 311 308 298 287 283 290 288 259 254 246 226 217 229 236 243 264 270 293 352 340 321 338 337 297 277 279 276 266 270 289 355 337 275 237 208 258 252 259 270 218 220 254 263 18 72 93 299 343 136 135 99 103 127 111 80 79 97 110 115 113 113 115 117 116 117 123
260 260 262 265 265 264 263 263 264 262 259 256 254 253 257 260 262 268 284 307 305 289 271 278 288 291 303 303 291 286 272 234 229 238 239 236 243 258 275 294 301 300 299 290 277 272 274 276 284 287 273 220 260 276 280 304 276 236 229 263 225 162 199 227 132 117 134 128 107 166 144 159 192 162 122 106 122 127 121 119 121 122 120 121 123 121 123
254 255 258 258 256 256 254 255 258 258 255 253 249 247 251 253 253 256 266 299 302 281 259 277 296 306 311 304 292 283 273 257 249 245 238 234 237 243 249 255 266 280 282 277 273 267 263 265 270 269 264 240 233 254 262 270 271 257 253 266 252 216 229 224 166 151 164 172 183 176 159 207 215 166 137 144 160 146 134 134 132 127 125 128 124 112 107
250 250 250 243 240 245 246 250 257 259 258 258 252 246 246 248 250 253 252 257 270 277 288 296 299 302 304 298 286 275 262 253 247 240 233 232 232 234 241 247 253 264 268 267 270 268 263 269 270 263 266 279 267 264 269 269 259 252 257 258 252 263 281 238 137 161 189 187 180 169 162 234 222 157 143 154 160 150 146 146 135 127 130 130 122 116 112
247 238 227 215 218 230 239 248 256 262 269 271 259 250 252 252 255 263 261 252 255 269 286 295 292 286 285 289 293 287 263 242 236 236 235 234 230 229 234 240 245 254 260 260 260 259 255 262 272 272 257 174 254 279 287 283 269 265 301 317 301 346 22 71 116 172 186 176 166 155 160 185 181 158 150 154 157 158 155 149 140 135 139 139 133 132 132
211 206 205 212 223 232 243 254 262 269 276 275 257 255 258 241 219 224 227 226 238 264 279 287 288 287 291 292 288 281 264 239 231 236 236 234 233 232 231 231 234 241 249 254 254 257 261 259 264 267 242 195 217 261 265 264 269 282 34 33 49 41 41 73 107 127 149 155 154 154 170 177 167 161 163 159 159 164 157 147 145 146 147 145 135 128 131
182 202 209 221 234 244 252 260 266 272 275 255 220 228 237 211 196 199 205 211 223 255 273 273 276 286 291 285 270 264 262 245 228 230 236 235 234 234 230 230 231 228 235 246 246 247 257 256 255 269 261 199 202 254 262 263 270 228 101 84 81 76 65 76 189 201 149 149 161 187 189 174 159 160 163 159 160 164 148 138 142 146 142 136 126 125 137
214 215 218 229 242 252 259 266 271 274 272 240 213 211 214 208 198 198 207 220 228 240 265 272 274 280 284 274 255 245 245 242 231 231 236 230 229 231 227 226 231 229 228 239 245 242 249 248 249 265 270 171 181 244 256 259 263 172 119 96 80 81 83 96 179 234 158 153 176 191 174 164 166 166 162 157 158 155 143 139 142 144 146 171 190 169 153
252 241 242 249 256 261 266 273 276 275 272 249 222 210 199 167 172 187 207 223 225 232 258 274 279 275 274 285 278 237 222 232 235 233 233 224 222 229 224 220 230 234 220 219 233 244 248 249 246 246 209 145 227 260 257 255 252 179 147 141 117 109 114 126 155 211 198 193 205 197 167 161 162 154 149 152 152 149 150 150 147 153 186 229 232 191 166
266 265 262 261 265 269 271 275 279 276 269 255 231 217 212 206 197 202 219 212 213 234 249 252 268 277 265 276 282 237 219 232 231 221 223 219 214 229 234 219 217 225 217 213 225 235 239 247 252 242 184 204 245 251 244 253 254 213 150 139 133 138 151 155 175 214 214 209 211 180 151 147 142 136 143 155 153 152 162 167 168 184 199 211 101 143 155
269 268 267 266 270 273 274 274 274 263 243 227 225 228 229 228 229 236 239 223 227 251 244 232 245 269 267 265 263 212 208 232 238 225 222 218 211 226 243 228 204 207 218 224 234 240 235 233 246 253 239 223 229 234 240 256 260 227 157 150 161 173 168 160 173 201 206 192 159 135 135 140 141 142 154 164 160 162 176 186 199 217 205 69 76 104 129
272 270 270 271 273 273 273 272 262 234 201 198 230 234 228 226 233 239 240 236 239 257 272 264 255 252 246 253 273 272 234 239 239 230 230 232 222 225 235 236 230 284 306 250 238 244 248 232 237 248 244 228 232 243 242 239 240 225 185 176 188 191 173 162 167 178 185 178 159 149 151 155 149 150 162 168 160 163 179 191 207 236 290 62 76 101 121
277 274 274 275 275 274 275 271 238 198 171 167 211 230 221 219 228 237 245 247 241 242 257 273 271 262 262 266 297 314 288 248 224 220 222 222 225 238 241 241 246 4 287 254 246 249 273 259 253 253 247 248 264 290 281 225 213 200 179 173 181 181 171 168 172 177 184 182 170 165 167 158 148 154 168 167 158 165 177 168 140 145 208 10 41 73 110
276 281 284 268 259 275 281 246 220 201 178 167 172 194 200 203 212 218 222 230 231 228 235 245 252 260 267 268 254 256 269 287 273 249 229 203 215 269 268 267 339 314 252 249 262 275 254 228 240 256 254 248 242 201 113 152 170 166 167 174 173 167 168 173 175 179 182 174 163 162 160 150 148 162 170 162 161 167 161 142 133 153 194 351 29 42 29
271 267 255 227 232 279 321 194 211 216 185 174 179 193 194 195 206 212 204 204 210 214 218 228 239 243 247 254 249 244 247 266 287 276 266 258 265 285 326 57 346 284 259 243 273 293 263 237 238 252 247 237 229 48 208 215 204 192 195 195 179 166 171 178 176 175 172 161 153 156 157 154 157 162 159 159 170 171 163 169 182 175 160 138 7 317 302
272 231 224 223 229 254 7 142 167 183 180 182 198 221 211 197 203 210 200 197 208 213 211 219 231 232 231 238 249 242 236 243 252 249 247 258 253 241 132 152 151 264 265 253 252 289 269 258 257 255 246 271 23 20 7 289 241 210 189 181 175 172 176 176 170 164 158 154 154 156 155 156 161 161 159 170 184 181 172 174 164 141 131 133 188 255 249
236 222 230 235 234 235 224 167 158 176 194 198 205 222 221 203 206 215 213 206 210 211 209 215 222 222 221 227 234 233 230 242 254 255 245 220 195 185 175 156 183 259 262 259 273 271 265 263 266 267 274 84 149 173 175 266 272 221 177 169 176 182 178 171 163 158 155 154 155 153 150 153 158 159 161 170 172 147 116 113 119 128 145 167 181 200 201
239 236 240 240 236 231 212 178 178 191 208 213 210 217 226 210 204 209 215 221 224 212 204 208 216 220 217 217 221 227 229 229 240 252 251 187 175 210 206 132 217 253 249 221 288 265 255 259 268 263 238 143 168 186 189 197 219 214 189 181 184 186 179 168 160 156 154 152 148 143 141 140 137 135 135 139 137 127 115 110 116 138 167 181 197 215 196
248 251 250 247 241 225 189 203 204 204 212 216 206 207 217 212 205 204 207 218 227 221 205 203 212 220 220 214 212 214 216 212 221 241 243 191 181 204 216 195 204 235 259 108 257 256 247 249 254 244 186 160 173 193 202 204 202 201 198 192 189 185 176 164 155 149 145 144 140 136 135 133 129 129 132 132 129 129 131 132 136 146 158 175 202 231 264
235 233 231 242 227 197 181 195 203 204 214 211 199 202 209 205 203 205 201 203 212 215 207 202 206 209 208 209 210 207 200 195 205 222 232 223 203 200 216 220 205 147 114 203 232 248 251 248 242 181 157 171 182 192 207 213 207 196 192 193 190 182 169 159 154 148 143 141 139 136 134 133 131 132 135 135 134 140 146 146 144 151 168 183 206 226 236
207 199 198 221 211 190 181 184 195 204 221 220 206 207 212 206 202 205 203 198 201 205 202 202 211 215 204 198 206 211 201 190 193 207 221 225 217 214 218 198 157 160 220 230 231 236 238 243 237 191 183 193 196 192 207 219 213 201 200 198 186 173 164 159 154 149 145 145 143 139 137 136 133 131 132 135 140 146 151 151 152 162 181 196 222 237 235
211 199 198 216 215 200 199 197 187 194 211 220 215 218 226 222 215 215 213 206 203 205 200 197 208 230 221 201 202 208 200 193 196 209 215 217 219 224 221 175 162 202 231 232 233 240 241 241 229 189 182 191 194 187 207 221 204 194 204 209 187 169 164 161 154 149 148 147 145 143 140 138 137 137 138 142 146 144 142 151 163 177 192 210 236 243 234
227 212 211 224 226 209 208 218 221 217 219 222 222 226 233 234 225 222 229 222 210 200 195 192 196 216 236 232 228 219 204 200 206 205 207 216 216 183 194 214 214 223 233 234 235 240 241 225 194 172 175 190 189 168 168 197 183 180 201 221 197 170 163 159 153 150 151 148 146 146 145 144 148 154 151 148 156 167 172 180 193 204 217 231 244 254 255
243 230 227 231 217 202 206 219 233 238 238 236 230 228 234 240 233 225 224 215 193 171 187 191 192 201 216 225 234 233 214 212 220 209 203 221 222 178 194 230 231 223 233 242 241 238 233 215 182 165 171 183 168 134 135 190 185 179 196 216 201 172 162 158 153 151 152 150 148 149 149 149 155 164 152 140 157 177 190 203 216 229 238 243 246 253 260
257 261 261 250 243 239 232 232 241 254 253 248 243 234 230 232 231 226 205 167 162 182 215 212 206 214 207 197 222 234 219 213 234 224 207 218 223 205 209 231 234 231 237 241 233 219 196 151 139 156 158 154 139 132 156 198 191 180 189 206 199 172 159 158 156 152 152 152 151 152 154 155 158 162 158 156 169 184 197 211 224 242 256 254 251 253 256
248 255 254 243 253 283 263 238 238 256 254 246 241 235 229 225 224 226 215 171 159 165 185 206 214 218 204 180 210 236 214 196 222 233 219 218 228 227 229 235 237 237 245 249 225 183 163 157 160 153 130 139 160 174 186 192 185 180 188 204 197 170 157 158 157 153 153 155 154 155 158 160 160 164 173 179 181 191 209 221 229 244 258 259 259 256 255
235 248 250 244 253 281 295 277 265 274 268 251 238 230 232 232 220 207 212 208 183 170 176 195 211 215 202 191 212 227 197 183 208 230 229 225 228 232 240 248 245 158 149 204 212 147 152 163 164 135 134 167 189 190 185 182 179 178 187 197 186 163 155 156 155 152 154 157 156 159 165 168 168 173 184 192 203 221 232 233 236 249 257 262 266 261 254
225 239 260 263 262 270 280 280 279 283 284 272 253 239 247 256 237 195 194 214 217 208 205 203 202 204 204 204 216 225 203 190 210 223 223 229 237 237 249 278 331 100 137 183 191 139 123 133 133 134 198 219 208 186 176 173 170 175 186 190 175 157 154 156 153 151 154 159 162 167 174 175 176 180 187 196 214 237 251 247 245 255 265 272 275 271 262